Regional Weather Roundup
Issued by NWS

Home | Current Version | Previous Version | Graphics & Text | Print | Product List | Glossary On
Versions: 1 2 3 4 5 6 7 8 9 10 11 12 13 14 15 16 17 18 19 20 21 22 23 24 25 26 27 28 29 30 31 32 33 34 35 36 37 38 39 40 41 42 43 44 45 46 47 48 49 50
000
ASUS43 KOAX 241210
RWRNE

WEATHER ROUNDUP FOR NEBRASKA
NATIONAL WEATHER SERVICE OMAHA NE
700 AM CDT WED MAY 24 2017

NOTES: SATELLITE DATA IS BEING USED TO AUGMENT CLOUD COVER ABOVE
       12000 FEET.
       "FAIR" INDICATES FEW OR NO CLOUDS BELOW 12,000 FEET WITH NO
       SIGNIFICANT WEATHER AND/OR OBSTRUCTIONS TO VISIBILITY.

  * THESE STATIONS DO NOT REPORT WEATHER SUCH AS RAIN...SNOW OR FOG.

NEZ001>004-019>022-054>056-241300-
NEBRASKA PANHANDLE

CITY           SKY/WX    TMP DP  RH WIND       PRES   REMARKS
SCOTTSBLUFF    CLEAR     38  34  85 E10       29.82F WCI  31
6HR MIN TEMP:  38; 6HR MAX TEMP:  45;

ALLIANCE       CLEAR     33  31  92 SE8       29.83F WCI  26
6HR MIN TEMP:  30; 6HR MAX TEMP:  36;

CHADRON        CLOUDY    44  35  70 S3        29.80F
6HR MIN TEMP:  37; 6HR MAX TEMP:  45;

GORDON         FAIR      37  34  89 SW6       29.83F WCI  32
6HR MIN TEMP:  31; 6HR MAX TEMP:  38;

KIMBALL        CLOUDY    37  34  90 SW6       29.85F WCI  32
SIDNEY         CLOUDY    33  31  92 S8        29.86F WCI  26
6HR MIN TEMP:  30; 6HR MAX TEMP:  35;

$$

NEZ057>060-069>072-079>082-241300-
SOUTHWEST NEBRASKA

CITY           SKY/WX    TMP DP  RH WIND       PRES   REMARKS
NORTH PLATTE   CLEAR     32  31  96 NW6       29.88S WCI  26
6HR MIN TEMP:  30; 6HR MAX TEMP:  39;

IMPERIAL       CLEAR     37  33  85 NW3       29.89F
6HR MIN TEMP:  34; 6HR MAX TEMP:  42;

LEXINGTON      CLEAR     37  36  93 NW6       29.86F WCI  33
MCCOOK         CLEAR     38  37  97 W7        29.89S WCI  33
6HR MIN TEMP:  34; 6HR MAX TEMP:  43;

OGALLALA       CLEAR     33  32  96 CALM      29.88F
$$

NEZ005>010-023>029-035>040-094-241300-
NORTH CENTRAL NEBRASKA

CITY           SKY/WX    TMP DP  RH WIND       PRES   REMARKS
VALENTINE      CLOUDY    33  29  85 SW5       29.85F WCI  29
6HR MIN TEMP:  31; 6HR MAX TEMP:  40;

AINSWORTH      CLOUDY    37  36  96 W5        29.85F WCI  33
BROKEN BOW     CLEAR     38  36  92 W3        29.85F
6HR MIN TEMP:  38; 6HR MAX TEMP:  49;

O`NEILL        CLEAR     42  40  90 W6        29.85S
ORD            CLEAR     39  37  92 NW5       29.84F
6HR MIN TEMP:  37; 6HR MAX TEMP:  49;

THEDFORD       CLEAR     33  33  97 W6        29.87S WCI  28
$$

NEZ041-046>049-061>064-073>077-083>087-241300-
SOUTH CENTRAL NEBRASKA

CITY           SKY/WX    TMP DP  RH WIND       PRES   REMARKS
GRAND ISLAND   CLEAR     44  42  93 NW9       29.86R
6HR MIN TEMP:  42; 6HR MAX TEMP:  50;

AURORA         CLEAR     45  42  90 NW9       29.84R
HASTINGS       CLEAR     45  41  86 NW7       29.86S
6HR MIN TEMP:  45; 6HR MAX TEMP:  50;

HEBRON         CLEAR     47  44  89 NW6       29.83R
HOLDREGE       CLEAR     41  38  90 NW6       29.86S
KEARNEY *      CLEAR     43  37  81 NW5       29.85F
YORK           CLEAR     46  43  87 NW8       29.83S
$$

NEZ011>018-030>034-042>045-241300-
NORTHEAST NEBRASKA

CITY           SKY/WX    TMP DP  RH WIND       PRES   REMARKS
NORFOLK        MOCLDY    44  42  93 W7        29.82F
6HR MIN TEMP:  42; 6HR MAX TEMP:  48;

ALBION         CLEAR     41  39  91 NW3       29.84S
BLAIR          CLEAR     47  46  93 NW8       29.78S
FREMONT        MOCLDY    47  46  97 W8        29.81R
TEKAMAH        CLEAR     48  45  89 NW12      29.79R
6HR MIN TEMP:  47; 6HR MAX TEMP:  51;

WAYNE          PTCLDY    45  45  99 N6        29.82S
$$

NEZ050>053-065>068-078-088>093-241300-
SOUTHEAST NEBRASKA

CITY           SKY/WX    TMP DP  RH WIND       PRES   REMARKS
LINCOLN        PTCLDY    48  44  86 NW13      29.81S
6HR MIN TEMP:  47; 6HR MAX TEMP:  52;

OMAHA EPPLEY   PTCLDY    49  44  83 N13       29.77R
6HR MIN TEMP:  49; 6HR MAX TEMP:  51;

BEATRICE       CLEAR     47  46  94 NW9       29.79S
FALLS CITY     CLOUDY    50  47  89 NW12      29.74S
6HR MIN TEMP:  48; 6HR MAX TEMP:  51;

NEBRASKA CITY  MOCLDY    51  46  83 N12       29.76S
PLATTSMOUTH    PTCLDY    49  44  83 NW10      29.76S
$$

NEZ044-045-051>053-067-241300-
OMAHA AREA

CITY           SKY/WX    TMP DP  RH WIND       PRES   REMARKS
OMAHA EPPLEY   PTCLDY    49  44  83 N13       29.77R
6HR MIN TEMP:  49; 6HR MAX TEMP:  51;

BLAIR          CLEAR     47  46  93 NW8       29.78S
FREMONT        MOCLDY    47  46  97 W8        29.81R
MILLARD        PTCLDY    50  47  88 NW8       29.78S
OFFUTT AFB     CLEAR     50  45  85 N7        29.76R
PLATTSMOUTH    PTCLDY    49  44  83 NW10      29.76S
WAHOO          FAIR      47  44  92 NW12      29.80S
$$




USA.gov is the U.S. government's official web portal to all federal, state and local government web resources and services.